Regional Weather Roundup
Issued by NWS

Home | Current Version | Previous Version | Text Only | Print | Product List | Glossary Off
Versions: 1 2 3 4 5 6 7 8 9 10 11 12 13 14 15 16 17 18 19 20 21 22 23 24 25 26 27 28 29 30 31 32 33 34 35 36 37 38 39 40 41 42 43 44 45 46 47 48 49 50

000
ASUS43 KDTX 290710
RWRMI
MICHIGAN HOURLY REGIONAL WEATHER ROUNDUP
NATIONAL WEATHER SERVICE DETROIT/PONTIAC MI
ISSUED BY NATIONAL WEATHER SERVICE GRAND RAPIDS MI
300 AM EDT SAT JUL 29 2017

NOTE: "FAIR" INDICATES FEW OR NO CLOUDS BELOW 12,000 FEET WITH NO
SIGNIFICANT WEATHER AND/OR OBSTRUCTION TO VISIBILITY.

MIZ047>049-052>055-059>063-066>070-074>076-081>083-290800-
SOUTHEAST LOWER MICHIGAN

CITY           SKY/WX    TMP DP  RH WIND       PRES   REMARKS
ADRIAN         PTCLDY    53  50  89 N8        30.02R
ALMA           CLEAR     53  47  81 CALM      30.08S
ANN ARBOR      CLEAR     57  53  86 N7        30.02R
BAD AXE        CLEAR     51  50  95 CALM      30.06S
DETROIT CITY   CLEAR     59  56  89 N7        30.01F
DETROIT        CLEAR     60  55  83 NE8       30.02R
FLINT          CLEAR     57  52  83 NE7       30.05S
GROSSE ILE     CLEAR     63  55  74 N9        29.99S
HILLSDALE      MOCLDY    52  46  82 N3        30.03S
HOWELL         CLEAR     54  51  92 CALM      30.05R

CITY           SKY/WX    TMP DP  RH WIND       PRES   REMARKS
JACKSON        LGT RAIN  55  50  83 N5        30.04R
LANSING        CLEAR     53  48  83 CALM      30.07R
MASON          CLEAR     54  52  92 NE6       30.06S
MONROE         CLEAR     56  52  88 N6        29.99S
MT. CLEMENS    CLEAR     57  56  97 N9        30.00S
PONTIAC        CLEAR     58  56  93 N8        30.02S
PORT HOPE        N/A     67  57  70 N13       30.03S
PORT HURON     CLEAR     64  55  72 N5        30.02S
TRI CITIES     CLEAR     57  53  86 N7        30.07S
YPSILANTI      CLEAR     61  56  83 NE10      30.02S
$$
MIZ043>046-050>051-056>058-064>065-071>073-077>080-290800-
SOUTHWEST LOWER MICHIGAN

CITY           SKY/WX    TMP DP  RH WIND       PRES   REMARKS
BATTLE CREEK   CLEAR     57  49  74 NE6       30.06R
BENTON HARBOR  CLEAR     55  48  77 CALM      30.05R
BIG RAPIDS     CLEAR     51  46  84 CALM      30.09S
COLDWATER      CLEAR     56  51  84 NE8       30.04S
HOLLAND        PTCLDY    58  46  64 NE3       30.07S
GRAND RAPIDS   CLEAR     57  47  69 NE7       30.07R
KALAMAZOO      CLEAR     58  47  66 NE5       30.05S
MARSHALL       CLEAR     55  51  87 CALM      30.05R
MOUNT PLEASANT CLEAR     57  46  67 CALM      30.07S
MUSKEGON       PTCLDY    59  45  59 NE5       30.08R
STURGIS        CLEAR     54  49  85 N5        30.03S
$$
MIZ016>042-290800-
NORTHERN LOWER MICHIGAN

CITY           SKY/WX    TMP DP  RH WIND       PRES   REMARKS
ALPENA         CLEAR     57  51  80 NW3       30.08S
BEAVER ISLAND    N/A     53  53  99 CALM      30.12S FOG
BELLAIRE       CLEAR     49  48  96 CALM      30.11S
CADILLAC       CLEAR     48  44  88 CALM      30.10S
CHARLEVOIX     CLEAR     56  55  97 CALM      30.13F
GAYLORD        CLEAR     54  47  77 CALM      30.12R
HOUGHTON LAKE  CLEAR     48  46  93 CALM      30.11R
MANISTEE       CLEAR     51  50  96 CALM      30.10R
OSCODA         CLEAR     54  49  85 NW3       30.06S
PELLSTON       CLEAR     51  50  96 NW5       30.11S
TRAVERSE CITY  CLEAR     53  49  86 CALM      30.09S
LUDINGTON      PTCLDY    51  51  99 CALM      30.10R
$$
MIZ007>008-015-290800-
EASTERN UPPER MICHIGAN

CITY           SKY/WX    TMP DP  RH WIND       PRES   REMARKS
KINROSS        CLEAR     58  54  86 N7        30.10F
MACKINAC ISLAN CLEAR     56  54  91 N6        30.10R
NEWBERRY       CLEAR     55  52  87 NW5       30.12R
S. S. MARIE    CLEAR     58  50  75 CALM      30.10S
$$
MIZ004>006-011>014-085-290800-
CENTRAL UPPER MICHIGAN

CITY           SKY/WX    TMP DP  RH WIND       PRES   REMARKS
MANISTIQUE     CLEAR     52  49  89 CALM      30.11S
ESCANABA       CLEAR     53  53 100 CALM      30.12S
MENOMINEE      CLEAR     57  56  96 CALM      30.12S
SAWYER-GWINN   CLEAR     49  47  94 CALM      30.14S
$$
MIZ001>003-009>011-084-290800-
WESTERN UPPER MICHIGAN

CITY           SKY/WX    TMP DP  RH WIND       PRES   REMARKS
IRON MOUNTAIN  CLEAR     52  49  89 CALM      30.13S
HOUGHTON       CLEAR     54  50  86 E3        30.12R
COPPER HARBOR    N/A     61  50  67 VRB7      30.11S
IRONWOOD       FOG       52  52 100 CALM      30.13S VSB 3/4
$$

ABBREVIATIONS USED IN REMARKS
   TC - TEMPERATURE IN CELSIUS
  WCI - WIND CHILL INDEX
   HX - HEAT INDEX
  VSB - VISIBILITY




USA.gov is the U.S. government's official web portal to all federal, state and local government web resources and services.